DW4839 Weather Reports


time (UTC)temp
F
wind
direction
speed
knots
gust
knots
rain 1hr
in
rain 24hr
in
rain mn
in
humidity
%
barometer
mb
20260503191555 76 5 3.5 7.8 0.00 0.00 0.00 53 1011.5
20260503190053 75 11 3.5 7.8 0.00 0.00 0.00 51 1011.7
20260503184547 74 345 3.5 8.7 0.00 0.00 0.00 55 1011.8
20260503183054 73 14 3.5 9.6 0.00 0.00 0.00 58 1012.1
20260503181618 72 348 3.5 7.0 0.00 0.00 0.00 59 1012.2
20260503180059 70 16 3.5 7.8 0.00 0.00 0.00 63 1012.1
20260503174558 69 9 4.3 8.7 0.00 0.00 0.00 64 1012.2
20260503173056 68 352 5.2 8.7 0.00 0.00 0.00 64 1012.2
20260503171548 68 33 4.3 8.7 0.00 0.00 0.00 67 1012.3
20260503120105 56 352 3.5 4.3 0.00 0.00 0.00 88 1012.1
20260503100107 58 350 3.5 7.0 0.00 0.01 0.00 81 1012.5
20260503081554 58 332 1.7 3.5 0.00 0.02 0.00 81 1012.9
20260503071559 60 348 3.5 4.3 0.00 0.02 0.00 80 1013.1
20260503060114 61 56 0.0 7.0 0.00 0.02 0.02 77 1013.2
20260503054552 61 74 0.9 3.5 0.00 0.02 0.02 77 1013.3
20260503053050 61 33 2.6 7.0 0.00 0.02 0.02 76 1013.1
20260503051554 61 9 3.5 7.8 0.00 0.02 0.02 78 1013.0
20260503050056 61 23 4.3 7.0 0.00 0.02 0.02 77 1013.0
20260503044619 61 360 2.6 6.1 0.00 0.02 0.02 75 1013.2
20260503043054 61 32 3.5 5.2 0.00 0.02 0.02 74 1013.4
20260503041555 62 53 1.7 2.6 0.00 0.02 0.02 72 1013.3
20260503040058 63 0 0.9 2.6 0.00 0.02 0.02 69 1013.0
20260503034559 63 178 0.9 2.6 0.00 0.02 0.02 69 1013.0
20260503033053 64 174 2.6 4.3 0.00 0.02 0.02 67 1012.9
20260503031552 63 167 1.7 3.5 0.00 0.02 0.02 70 1012.9
20260503030104 62 209 2.6 6.1 0.00 0.02 0.02 74 1012.6
20260503024557 60 223 3.5 11.3 0.00 0.02 0.02 77 1012.6
20260503023058 60 177 7.0 13.9 0.00 0.02 0.02 77 1012.8
20260503021555 61 209 8.7 14.8 0.00 0.02 0.02 75 1012.8
20260503020049 64 220 6.1 11.3 0.00 0.02 0.02 71 1012.6
20260503014610 67 217 2.6 4.3 0.00 0.02 0.02 66 1012.1
20260503013102 67 192 0.9 1.7 0.00 0.02 0.02 64 1012.0
20260503011554 67 26 0.0 1.7 0.00 0.02 0.02 64 1012.0
20260503010055 66 0 0.0 2.6 0.00 0.02 0.02 67 1011.9
20260503004553 67 5 0.9 1.7 0.00 0.02 0.02 65 1011.9
20260503003052 66 23 0.9 3.5 0.00 0.02 0.02 67 1011.8
20260503001552 66 327 1.7 5.2 0.00 0.02 0.02 67 1011.8
20260503000052 67 34 1.7 3.5 0.00 0.02 0.02 63 1012.0
20260502234601 67 30 0.9 4.3 0.00 0.02 0.02 66 1012.1
20260502233050 67 37 1.7 3.5 0.00 0.02 0.02 65 1012.3
20260502231549 66 319 1.7 4.3 0.00 0.02 0.02 65 1012.4
20260502230053 65 22 0.9 3.5 0.00 0.02 0.02 69 1012.4
20260502224555 65 11 1.7 4.3 0.00 0.02 0.02 68 1012.7
20260502223101 64 22 2.6 7.0 0.00 0.02 0.02 68 1013.0
20260502221557 64 40 0.9 5.2 0.00 0.02 0.02 67 1013.2
20260502214609 64 5 3.5 7.0 0.00 0.02 0.02 68 1013.7
20260502213117 63 28 1.7 7.8 0.00 0.02 0.02 70 1013.8
20260502211558 61 44 3.5 6.1 0.00 0.02 0.02 70 1014.0
20260502210058 62 352 2.6 7.0 0.00 0.02 0.02 72 1014.0
20260502204550 61 339 1.7 6.1 0.00 0.02 0.02 71 1014.4
20260502203113 60 67 3.5 7.8 0.00 0.02 0.02 75 1014.6
20260502201554 58 21 0.9 5.2 0.00 0.02 0.02 77 1014.6
20260502200057 57 104 2.6 6.1 0.00 0.02 0.02 76 1014.9
20260502194553 57 350 0.9 7.0 0.00 0.02 0.02 78 1014.8
20260502193100 57 15 2.6 4.3 0.00 0.02 0.02 79 1014.9